RH
6 26 92 89 85 96 56 41 22 99 77 17 42 75 34 35 40 38 32 30 30 31 31 33 39 40 41 46 55 59 54 59 54 56 61 70 71 71 79 72 93 98 98 97 97 97 91 52 30
12 24 46 58 97 60 39 22 14 7 9 20 25 42 31 30 37 44 40 29 30 34 33 33 36 38 40 40 54 58 56 62 62 60 69 76 75 72 84 69 87 97 97 97 95 79 57 48 42
18 63 64 89 74 98 56 18 17 14 8 11 18 23 31 27 33 35 44 30 28 30 30 33 35 43 42 43 53 60 59 56 63 60 63 68 70 78 73 73 88 92 94 93 80 62 56 46 38
60 42 50 62 92 50 35 25 28 25 14 7 12 19 31 28 29 29 37 42 40 31 35 37 38 35 34 34 51 58 69 61 62 68 51 58 70 67 63 68 60 72 88 92 83 84 42 38 42
37 97 98 87 96 60 32 72 40 35 31 14 11 14 23 34 27 27 28 48 57 64 41 33 42 33 51 34 40 46 61 56 56 75 53 46 58 65 64 55 51 58 60 65 48 50 43 40 36
82 93 97 80 98 41 30 44 53 52 42 26 11 12 20 30 28 26 25 48 55 65 59 39 24 40 42 41 37 41 49 56 37 56 60 55 41 45 59 58 48 50 55 54 63 65 44 38 40
92 62 64 90 44 28 26 36 64 70 48 35 21 11 16 22 31 26 26 34 55 60 70 65 42 30 24 39 40 43 45 47 42 43 42 49 50 41 58 57 52 49 52 50 59 60 48 42 47
94 76 90 72 75 29 32 39 78 77 72 63 37 10 13 21 23 31 28 29 64 67 61 66 67 40 26 30 43 44 43 42 41 41 45 41 42 38 50 52 50 50 53 52 56 61 48 49 50
70 94 76 95 47 34 42 69 56 72 74 78 45 13 14 23 23 26 32 30 62 61 45 54 78 70 38 27 35 41 41 40 46 43 36 37 40 38 46 45 49 46 49 49 54 58 55 59 56
97 98 94 87 47 36 31 64 55 64 69 75 77 25 16 18 25 21 28 31 56 66 51 46 64 87 42 36 38 32 38 45 45 43 43 37 48 63 54 40 44 48 50 55 57 58 56 59 63
91 76 36 43 52 31 37 63 57 49 60 71 77 76 23 16 16 19 21 30 34 58 64 45 38 81 81 47 47 33 33 32 34 35 37 41 46 43 42 40 45 53 55 49 45 52 51 45 44
49 44 35 41 95 89 43 48 40 43 69 74 74 81 78 20 14 15 19 24 29 41 63 49 38 67 86 71 48 48 39 41 37 35 33 35 40 44 42 39 43 45 48 52 50 36 38 43 48
99 49 52 49 97 56 48 51 32 36 30 29 68 87 79 60 22 12 14 20 28 29 33 37 37 46 81 86 62 64 78 57 56 44 42 36 33 32 32 30 36 32 37 39 46 44 42 42 48
70 80 45 100 50 36 48 27 90 40 32 12 24 63 75 76 58 23 13 15 20 31 31 33 34 39 81 91 87 92 89 71 82 81 76 64 56 47 52 51 45 37 40 37 31 33 37 41 40
97 67 51 55 48 27 48 36 26 43 33 26 12 12 48 61 72 28 13 11 14 20 32 34 37 43 52 68 89 92 93 91 85 83 85 88 72 74 88 54 75 74 62 49 38 45 40 49 47
80 80 67 51 65 37 41 45 28 33 32 49 42 29 16 20 64 60 35 26 14 13 17 29 39 40 52 52 56 75 90 92 91 84 82 76 77 76 86 88 88 83 65 65 69 45 60 73 65
65 36 97 87 70 77 71 79 78 26 35 51 51 32 15 9 50 64 61 70 40 27 23 21 31 37 55 58 47 46 48 66 84 88 73 62 61 73 76 62 57 63 56 58 72 81 74 76 80
73 98 96 90 79 94 97 97 89 36 35 42 42 35 32 9 44 65 67 66 78 72 43 30 30 28 52 63 45 41 24 34 53 68 68 74 72 70 78 79 76 69 65 74 85 92 91 74 68
66 79 98 98 56 57 73 87 98 48 52 38 44 35 35 32 18 50 62 68 62 72 79 74 33 41 56 62 56 38 43 37 64 75 79 80 76 74 77 78 82 72 69 92 89 86 86 77 70
67 63 71 77 60 37 62 50 77 72 62 53 49 36 33 30 15 26 54 56 55 53 66 75 40 49 56 51 60 36 37 62 80 89 89 81 85 86 97 90 85 83 83 77 84 77 87 90 79
87 88 58 63 53 62 46 62 55 54 73 61 47 34 28 30 28 14 34 54 52 43 48 60 44 47 69 69 61 37 37 52 78 83 96 80 95 96 96 97 95 92 82 87 79 77 82 84 88
70 68 47 87 80 93 94 84 85 72 65 57 41 30 24 28 50 11 18 40 53 45 46 59 68 70 71 69 46 39 36 40 48 58 75 70 70 62 62 60 59 59 59 67 80 85 76 84 82
92 67 19 76 76 79 92 97 96 95 74 48 47 32 27 19 23 24 14 28 39 44 43 57 68 72 75 64 49 57 58 66 65 67 69 90 81 66 67 71 74 71 63 59 67 73 76 82 78
16 15 32 81 78 80 80 91 97 99 100 53 42 32 28 22 19 24 15 21 41 50 58 49 56 68 80 80 65 73 58 77 77 82 71 76 90 87 68 62 59 63 67 64 60 59 69 74 75
8 27 64 88 80 82 57 74 83 94 79 50 40 34 30 27 26 16 22 25 42 50 57 61 56 60 75 84 78 68 68 73 79 84 84 78 69 61 58 33 22 52 32 47 64 70 80 97 53
79 82 89 67 72 90 85 62 92 89 82 54 35 35 34 30 29 29 16 22 31 59 64 51 54 70 74 69 73 72 71 81 85 86 90 41 26 23 16 13 3 6 24 18 9 13 31 6 4
27 60 64 61 56 83 82 62 78 76 85 46 33 37 42 35 33 36 32 24 14 21 47 52 57 71 76 74 74 79 79 86 86 17 13 10 7 5 6 5 4 4 4 8 24 25 18 9 5
43 53 60 71 86 50 73 68 61 81 84 91 68 42 34 39 38 35 30 26 22 15 28 47 32 26 34 51 69 55 27 26 25 21 17 18 16 13 12 12 9 7 6 4 4 4 5 6 7
40 18 7 54 77 75 65 77 66 74 65 87 93 68 38 24 33 34 32 22 20 17 21 31 46 39 24 29 40 44 30 29 30 33 29 25 21 20 22 23 24 24 23 20 15 11 8 7 7
15 52 59 52 51 57 58 45 60 70 66 63 62 66 49 48 41 44 36 30 30 22 24 24 32 42 44 24 18 19 19 18 15 12 11 14 10 10 8 7 10 16 17 16 17 23 24 21 16
Wind_Speed
11 16 20 18 27 12 9 7 6 2 10 6 3 3 4 3 5 7 6 6 7 7 7 6 6 7 5 4 4 8 9 10 11 11 11 10 12 11 11 11 11 18 29 24 26 27 28 24 19
13 10 11 18 26 12 14 14 10 7 6 5 3 2 3 3 5 7 5 7 7 9 7 6 7 6 5 3 5 7 9 10 11 11 11 11 13 12 13 16 12 21 30 30 27 27 22 20 18
13 11 21 18 4 12 12 14 14 12 8 6 4 2 1 2 4 4 4 7 7 9 7 6 8 7 5 4 5 6 8 10 11 11 11 12 14 14 16 16 15 19 31 31 25 22 19 18 18
12 11 22 5 11 11 13 14 13 11 7 7 2 1 2 2 3 3 3 6 9 11 8 8 9 8 6 5 5 6 7 8 10 10 11 12 14 16 17 16 17 16 22 23 23 21 15 17 16
17 20 15 14 14 11 19 17 14 10 7 6 3 2 2 4 4 4 3 4 8 10 10 9 9 9 7 6 5 5 6 8 8 9 9 11 13 15 16 16 16 14 17 18 19 19 15 15 17
21 24 2 11 7 13 15 13 16 13 6 5 2 2 1 3 6 5 4 3 6 9 9 10 9 10 8 6 6 6 6 6 7 8 9 10 12 12 14 14 14 14 14 14 15 14 15 14 14
7 22 6 2 11 12 14 15 17 17 14 4 3 3 3 3 5 6 4 6 5 8 8 9 10 9 8 7 8 8 8 7 7 7 8 9 11 12 12 13 12 12 12 12 12 15 15 13 14
18 23 5 12 10 12 15 15 19 15 14 12 3 2 4 4 4 5 5 6 7 7 8 6 9 8 9 7 9 9 8 8 8 9 10 11 12 11 12 10 9 10 10 11 10 14 13 14 16
20 24 6 4 9 12 15 10 15 25 20 12 6 5 4 5 4 6 6 7 8 9 9 6 7 8 7 8 7 9 9 8 9 10 12 13 11 13 12 8 7 9 10 11 13 12 13 13 13
18 12 10 5 11 15 17 19 22 26 22 16 6 4 3 5 5 7 7 8 9 8 6 6 7 7 7 7 8 8 9 9 8 10 11 13 10 10 12 12 10 12 11 11 11 10 10 9 10
19 2 12 11 13 20 24 23 27 24 22 21 17 5 1 5 6 6 7 7 8 7 6 5 5 5 6 5 6 7 8 10 9 8 11 12 8 10 13 14 12 12 11 12 9 10 10 8 10
3 5 12 13 17 10 19 21 21 25 26 24 20 16 3 6 7 6 6 6 7 6 5 5 5 4 4 5 6 6 6 9 10 9 8 9 9 9 10 10 10 9 9 9 8 8 9 6 7
13 11 8 9 10 13 20 18 22 26 26 26 26 26 5 7 5 4 5 5 6 6 4 3 3 3 1 4 6 6 4 4 7 8 7 7 7 7 7 7 7 6 5 7 5 6 5 4 3
7 9 4 8 12 14 12 18 16 25 26 28 27 27 21 9 4 4 2 3 4 6 6 4 3 1 0 2 5 9 7 6 4 5 4 4 3 3 3 3 4 4 4 4 4 3 2 2 2
11 9 8 7 10 18 13 14 23 23 25 27 29 29 22 14 7 3 4 3 5 6 7 7 5 4 2 1 1 5 5 4 6 3 2 2 0 2 2 3 3 4 4 3 2 2 2 3 2
16 13 10 13 14 16 17 23 26 21 23 26 27 28 27 21 10 5 2 5 5 7 8 8 7 7 4 5 1 4 3 6 8 5 4 2 0 2 2 3 3 5 6 7 6 5 5 5 6
15 9 17 18 13 13 25 22 26 21 23 25 26 23 24 22 18 10 3 4 6 8 8 10 10 9 7 6 4 5 5 3 6 8 8 4 3 3 4 5 6 7 9 9 7 8 7 9 9
1 24 17 18 14 10 8 19 19 22 24 23 24 25 24 23 20 16 8 4 2 8 11 13 12 11 9 8 5 5 6 4 5 7 7 4 6 6 5 5 8 6 7 5 4 6 5 7 10
3 6 9 15 14 5 5 16 3 17 21 18 23 26 26 21 21 17 7 4 7 6 8 15 14 13 13 11 6 5 4 3 1 3 7 7 6 7 7 8 7 5 4 5 6 8 9 9 8
18 6 5 6 7 9 6 10 7 8 15 15 19 22 25 26 18 20 14 9 6 9 4 8 13 12 12 11 9 8 5 2 2 1 3 6 7 7 7 8 9 8 6 6 7 8 9 11 12
20 21 12 8 13 12 8 9 6 12 3 9 15 23 24 24 17 15 14 10 8 7 4 3 11 14 14 12 13 12 8 5 4 3 5 5 2 5 7 7 8 6 7 10 12 13 14 14 15
18 19 3 8 11 17 15 22 9 21 17 9 14 23 28 27 10 11 13 11 9 7 2 4 9 14 16 12 14 12 8 7 5 6 10 8 7 7 7 10 9 10 11 15 16 16 17 16 15
11 14 5 8 17 23 19 8 5 16 17 15 15 21 23 26 18 16 13 12 10 7 4 2 3 5 6 10 11 9 9 9 7 8 9 8 10 11 10 11 12 13 14 16 20 20 21 19 20
13 8 4 16 19 20 13 11 4 15 11 12 14 17 18 21 23 18 13 12 13 9 6 4 5 5 7 8 9 9 10 9 10 9 11 11 11 10 9 11 10 10 11 15 18 19 21 19 17
10 2 7 26 13 22 7 8 5 15 14 9 10 14 16 14 17 18 15 14 12 11 8 7 4 3 7 9 11 13 13 11 10 11 11 9 7 10 4 6 8 8 11 10 11 13 16 17 7
12 13 17 20 30 13 10 9 24 12 15 13 12 15 14 12 11 14 15 12 11 11 6 6 10 10 4 9 11 11 10 8 10 8 9 6 5 5 7 6 6 6 6 8 9 10 5 6 7
7 11 11 12 10 14 18 24 7 10 12 21 17 8 9 11 12 13 15 14 11 9 9 10 11 4 4 5 7 4 4 3 3 4 6 7 8 9 8 8 7 7 7 7 7 7 7 9 10
15 12 10 6 22 9 8 10 17 12 13 18 21 10 9 11 11 14 17 16 13 10 8 8 7 7 5 4 4 2 3 5 6 7 10 12 13 12 12 11 12 12 12 12 11 11 13 14 15
13 9 8 8 20 12 12 5 5 7 9 12 17 24 13 11 12 14 17 16 12 10 8 9 8 6 6 5 4 6 7 9 10 11 12 14 14 14 15 16 15 14 14 14 15 16 16 16 16
12 9 13 15 8 10 13 17 22 10 10 15 16 27 31 16 10 13 14 14 15 11 7 8 8 8 8 7 7 8 9 11 11 12 13 15 16 17 17 18 18 18 18 18 18 18 19 20 22
Wind_Direction
63 68 72 70 59 24 46 77 339 90 313 357 96 354 48 77 74 77 77 84 78 80 73 73 84 70 60 81 98 94 90 93 98 100 99 96 93 79 72 60 62 147 170 140 127 120 101 101 111
73 59 38 50 48 316 14 15 12 356 330 358 6 30 86 89 71 64 61 82 86 82 79 82 88 84 78 95 106 98 92 95 99 102 103 96 93 88 78 71 76 100 140 129 107 92 101 102 104
79 79 57 62 277 30 13 18 12 1 349 328 333 15 84 98 94 84 70 81 88 89 88 86 83 79 91 104 111 107 99 98 101 100 98 104 100 95 92 75 71 63 89 96 98 98 97 99 98
59 41 35 1 40 27 18 18 8 3 349 316 320 282 204 168 135 116 100 92 85 84 84 84 81 78 84 93 108 109 106 101 101 103 106 103 104 103 98 90 80 69 70 92 100 96 101 106 102
48 77 64 16 12 26 27 12 355 340 342 333 270 243 236 196 176 127 114 116 97 82 78 80 85 78 76 83 101 105 100 100 109 115 117 113 107 110 110 99 87 81 84 89 100 100 103 92 92
69 66 234 23 21 27 53 13 10 11 349 357 269 185 216 223 195 137 121 126 117 93 79 79 77 81 75 85 104 105 103 100 105 126 125 120 115 114 115 104 87 85 89 100 106 102 94 91 84
358 107 40 300 9 20 24 22 12 12 17 6 1 196 171 204 220 144 110 109 116 101 83 79 74 75 78 84 96 103 105 109 101 112 126 130 122 118 116 110 92 93 101 109 113 107 102 102 91
54 82 12 18 331 19 32 29 42 20 19 358 34 142 154 155 206 162 123 113 116 112 99 90 74 72 77 82 100 102 104 109 110 109 119 129 128 118 116 107 87 95 111 109 121 111 110 104 97
71 57 18 72 355 25 30 360 67 43 28 23 15 78 141 142 178 176 150 140 124 120 101 100 93 92 90 81 88 100 102 105 110 109 113 120 126 139 127 108 94 100 109 117 112 111 108 106 100
70 63 66 5 13 45 39 39 45 44 37 30 42 64 123 164 176 189 169 157 146 137 113 90 95 95 88 96 87 92 100 98 101 111 116 117 145 140 117 111 106 107 106 105 107 109 108 114 100
78 350 48 50 50 44 37 41 38 31 31 35 30 22 179 174 187 197 183 178 169 164 147 101 83 121 94 118 123 115 114 110 103 103 110 115 114 107 106 102 113 112 109 108 98 103 98 90 93
17 68 28 36 52 33 37 47 40 35 37 35 29 4 255 182 175 178 185 195 190 180 175 139 102 104 174 166 156 140 133 131 118 108 99 99 110 108 104 111 116 110 104 119 135 104 95 91 76
94 18 5 16 42 36 33 41 37 33 34 35 32 30 88 162 157 163 179 201 213 208 199 153 116 92 346 195 177 163 137 153 130 117 109 98 96 103 101 106 104 98 92 100 94 72 78 72 79
177 202 15 77 19 33 31 23 26 30 27 34 40 42 50 86 119 152 170 194 219 229 225 208 161 129 100 173 200 208 230 149 133 126 123 102 93 74 47 59 65 61 63 50 68 87 76 20 360
299 132 10 77 63 20 34 27 37 28 31 32 35 44 46 59 54 141 167 198 217 228 239 230 225 227 274 237 174 274 200 255 180 132 135 98 42 319 354 352 18 354 341 324 311 306 281 269 285
277 329 68 62 40 9 358 21 29 24 32 33 30 28 33 36 46 0 293 245 228 226 240 233 232 239 244 276 180 267 296 212 212 198 183 185 81 274 260 289 321 335 316 301 268 272 277 283 268
257 95 52 56 30 354 26 358 2 29 27 25 23 29 26 30 23 15 329 274 231 233 230 243 237 239 234 263 277 287 281 276 258 237 240 236 257 277 265 270 297 302 307 307 272 262 281 268 278
36 351 48 49 325 13 25 326 329 3 6 19 26 16 24 21 25 17 352 9 340 249 237 230 236 225 230 243 254 276 281 248 249 235 231 248 257 235 236 283 281 291 317 314 252 246 277 296 291
352 62 112 149 317 55 64 292 331 6 1 6 9 15 15 18 18 27 44 13 1 352 246 241 226 225 231 242 245 240 251 260 302 245 222 229 233 255 261 286 259 261 290 293 274 266 273 290 301
299 107 167 207 35 321 299 289 118 277 3 6 6 9 1 360 10 14 23 22 18 357 347 207 215 222 224 230 236 242 243 211 179 228 195 227 251 223 213 232 230 235 251 275 283 289 299 290 282
303 309 308 27 320 10 322 313 319 303 56 14 11 3 355 352 358 8 12 10 15 355 334 237 226 223 231 229 224 222 216 205 218 244 265 177 159 241 230 257 282 272 286 280 285 291 295 298 306
295 299 268 359 319 307 299 320 331 333 81 61 15 14 0 5 4 12 2 360 344 358 350 291 240 247 249 229 212 220 214 213 228 251 269 306 307 302 292 297 292 291 286 289 292 290 289 296 295
258 320 311 314 268 281 283 318 175 344 7 51 14 13 4 6 17 358 1 356 335 342 336 293 266 254 200 216 216 214 230 237 243 272 277 295 278 282 291 295 295 293 285 281 282 283 283 282 285
233 267 52 285 285 314 289 278 301 76 30 6 1 7 13 8 360 355 348 351 345 336 352 307 243 204 201 210 221 222 233 240 246 257 270 282 303 291 302 301 297 295 296 291 284 277 275 278 286
271 16 312 285 302 352 38 261 339 303 35 348 353 350 1 7 356 358 346 343 345 337 342 345 328 248 210 210 223 225 237 247 263 271 276 282 304 295 297 306 303 314 331 331 305 276 255 278 296
237 263 297 312 326 303 320 346 296 344 307 350 306 324 354 349 12 6 359 350 346 358 14 354 315 262 231 241 238 237 244 261 281 297 266 277 271 268 297 305 314 321 339 356 2 25 24 330 316
259 273 295 305 346 303 13 345 0 49 333 322 320 307 339 342 342 345 354 351 359 347 335 350 23 69 198 215 228 259 313 274 308 332 301 303 295 292 294 304 303 299 301 297 315 327 316 310 309
266 262 272 249 276 235 317 324 341 46 300 312 327 327 291 303 327 334 340 338 340 347 333 334 6 33 56 71 136 224 301 303 303 315 323 325 320 315 316 311 306 303 302 296 288 281 282 286 291
258 268 273 251 286 328 358 173 165 351 12 311 317 309 305 279 308 320 333 339 330 329 347 334 335 360 10 16 325 307 314 312 313 319 321 321 319 317 312 305 301 302 304 303 302 300 294 287 283
248 233 273 270 250 275 278 269 283 166 244 257 288 293 297 299 306 307 318 328 350 338 346 358 345 342 346 346 333 327 321 318 320 318 318 321 321 321 321 317 312 308 307 305 304 300 297 295 294